TAM3125 SGAS-SBBR

Flight info

Callsign TAM3125
Flight time 1h 48m
Altitude 37000
Route NILKI DCT SOSMO UM403 EGONI
Aircraft A320/M-SDE3FGHIRWY/LB1

Departure

Time 2026-04-25 06:53
Airport Silvio Pettirossi International Airport (SGAS)

Arrival

Time 2026-04-25 08:41
Airport Presidente Juscelino Kubitschek International Airport (SBBR)
Time Latitude Longitude Altitude Speed Heading
2026-04-25 06:38 -25.24127 -57.51493 278 ft 0 kts 108°
2026-04-25 06:46 -25.24121 -57.51512 282 ft 4 kts 108°
2026-04-25 06:46 -25.24113 -57.51540 285 ft 4 kts 110°
2026-04-25 06:46 -25.24103 -57.51567 284 ft 3 kts 112°
2026-04-25 06:47 -25.24101 -57.51575 282 ft 0 kts 112°
2026-04-25 06:48 -25.24093 -57.51589 283 ft 2 kts 166°
2026-04-25 06:49 -25.24088 -57.51590 284 ft 0 kts 187°
2026-04-25 06:49 -25.24095 -57.51592 283 ft 4 kts 191°
2026-04-25 06:49 -25.24159 -57.51609 278 ft 14 kts 197°
2026-04-25 06:49 -25.24260 -57.51644 278 ft 16 kts 198°
2026-04-25 06:50 -25.24303 -57.51748 279 ft 17 kts 257°
2026-04-25 06:50 -25.24405 -57.51798 279 ft 18 kts 192°
2026-04-25 06:50 -25.24533 -57.51828 279 ft 20 kts 192°
2026-04-25 06:50 -25.24673 -57.51861 279 ft 21 kts 192°
2026-04-25 06:51 -25.24824 -57.51898 279 ft 23 kts 192°
2026-04-25 06:51 -25.24985 -57.51936 279 ft 24 kts 193°
2026-04-25 06:51 -25.25156 -57.51977 279 ft 26 kts 192°
2026-04-25 06:51 -25.25336 -57.52021 279 ft 27 kts 192°
2026-04-25 06:52 -25.25479 -57.52085 282 ft 17 kts 248°
2026-04-25 06:52 -25.25465 -57.52205 289 ft 15 kts 286°
2026-04-25 06:52 -25.25377 -57.52248 287 ft 21 kts
2026-04-25 06:52 -25.24991 -57.52155 284 ft 90 kts 12°
2026-04-25 06:53 -25.24192 -57.51961 285 ft 142 kts 12°
2026-04-25 06:53 -25.23091 -57.51697 383 ft 172 kts 11°
2026-04-25 06:53 -25.21937 -57.51438 954 ft 169 kts 11°
2026-04-25 06:53 -25.20788 -57.51163 1468 ft 170 kts 12°
2026-04-25 06:54 -25.19574 -57.50866 1755 ft 189 kts 11°
2026-04-25 06:54 -25.18208 -57.50531 1952 ft 212 kts 11°
2026-04-25 06:54 -25.16679 -57.50159 2171 ft 238 kts 11°
2026-04-25 06:54 -25.15005 -57.49754 2522 ft 260 kts 10°
2026-04-25 06:55 -25.13241 -57.49189 3242 ft 269 kts 25°
2026-04-25 06:55 -25.11754 -57.47927 4107 ft 274 kts 46°
2026-04-25 06:55 -25.10523 -57.46313 5028 ft 275 kts 47°
2026-04-25 06:55 -25.09296 -57.44679 5827 ft 279 kts 47°
2026-04-25 06:56 -25.08050 -57.43017 6582 ft 284 kts 47°
2026-04-25 06:56 -25.06780 -57.41327 7318 ft 288 kts 47°
2026-04-25 06:56 -25.05493 -57.39616 8060 ft 292 kts 47°
2026-04-25 06:56 -25.04189 -57.37882 8785 ft 296 kts 47°
2026-04-25 06:57 -25.02881 -57.36149 9475 ft 300 kts 47°
2026-04-25 06:57 -25.01535 -57.34364 10150 ft 305 kts 46°
2026-04-25 06:57 -25.00129 -57.32502 10339 ft 328 kts 47°
2026-04-25 06:57 -24.98619 -57.30509 10471 ft 350 kts 47°
2026-04-25 06:58 -24.97015 -57.28389 10593 ft 370 kts 47°
2026-04-25 06:58 -24.95328 -57.26154 10815 ft 385 kts 47°
2026-04-25 06:58 -24.93607 -57.23865 11285 ft 391 kts 48°
2026-04-25 06:58 -24.91864 -57.21546 11804 ft 395 kts 47°
2026-04-25 06:59 -24.90124 -57.19235 12318 ft 399 kts 47°
2026-04-25 06:59 -24.88341 -57.16871 12833 ft 403 kts 47°
2026-04-25 06:59 -24.86534 -57.14484 13345 ft 407 kts 47°
2026-04-25 06:59 -24.84712 -57.12082 13840 ft 411 kts 47°
2026-04-25 07:00 -24.82869 -57.09651 14298 ft 415 kts 47°
2026-04-25 07:00 -24.81015 -57.07202 14778 ft 418 kts 47°
2026-04-25 07:00 -24.79149 -57.04738 15259 ft 421 kts 47°
2026-04-25 07:00 -24.77265 -57.02254 15741 ft 424 kts 47°
2026-04-25 07:01 -24.75368 -56.99756 16231 ft 427 kts 47°
2026-04-25 07:01 -24.73481 -56.97269 16709 ft 430 kts 47°
2026-04-25 07:01 -24.71553 -56.94731 17192 ft 434 kts 47°
2026-04-25 07:01 -24.69615 -56.92177 17664 ft 437 kts 47°
2026-04-25 07:02 -24.67657 -56.89601 18121 ft 440 kts 47°
2026-04-25 07:02 -24.65677 -56.87019 18530 ft 443 kts 45°
2026-04-25 07:02 -24.63515 -56.84601 18890 ft 445 kts 41°
2026-04-25 07:02 -24.61315 -56.82190 19239 ft 449 kts 41°
2026-04-25 07:03 -24.59096 -56.79760 19585 ft 452 kts 41°
2026-04-25 07:03 -24.56860 -56.77313 19916 ft 455 kts 41°
2026-04-25 07:03 -24.54610 -56.74848 20261 ft 458 kts 41°
2026-04-25 07:03 -24.52379 -56.72404 20587 ft 461 kts 41°
2026-04-25 07:04 -24.50097 -56.69906 20915 ft 464 kts 41°
2026-04-25 07:04 -24.47808 -56.67399 21231 ft 467 kts 41°
2026-04-25 07:04 -24.45501 -56.64873 21536 ft 469 kts 41°
2026-04-25 07:04 -24.43183 -56.62334 21832 ft 472 kts 41°
2026-04-25 07:05 -24.40852 -56.59782 22111 ft 475 kts 41°
2026-04-25 07:05 -24.38507 -56.57216 22377 ft 477 kts 41°
2026-04-25 07:05 -24.36148 -56.54638 22660 ft 480 kts 41°
2026-04-25 07:05 -24.33811 -56.52084 22914 ft 482 kts 41°
2026-04-25 07:06 -24.31428 -56.49485 23171 ft 484 kts 41°
2026-04-25 07:06 -24.29033 -56.46879 23416 ft 487 kts 41°
2026-04-25 07:06 -24.26625 -56.44259 23646 ft 489 kts 41°
2026-04-25 07:06 -24.24208 -56.41626 23854 ft 490 kts 41°
2026-04-25 07:07 -24.21790 -56.38987 24071 ft 492 kts 41°
2026-04-25 07:07 -24.19362 -56.36339 24292 ft 493 kts 41°
2026-04-25 07:07 -24.16929 -56.33688 24520 ft 494 kts 41°
2026-04-25 07:07 -24.14486 -56.31036 24735 ft 495 kts 41°
2026-04-25 07:08 -24.12035 -56.28380 24950 ft 496 kts 41°
2026-04-25 07:08 -24.09578 -56.25718 25161 ft 498 kts 41°
2026-04-25 07:08 -24.07151 -56.23093 25468 ft 496 kts 40°
2026-04-25 07:08 -24.04700 -56.20441 25793 ft 495 kts 40°
2026-04-25 07:09 -24.02259 -56.17790 26124 ft 494 kts 40°
2026-04-25 07:09 -23.99824 -56.15142 26465 ft 493 kts 40°
2026-04-25 07:09 -23.97393 -56.12504 26803 ft 492 kts 40°
2026-04-25 07:09 -23.94965 -56.09877 27158 ft 491 kts 40°
2026-04-25 07:10 -23.92541 -56.07256 27517 ft 490 kts 40°
2026-04-25 07:10 -23.90123 -56.04638 27886 ft 489 kts 40°
2026-04-25 07:10 -23.87709 -56.02024 28262 ft 488 kts 40°
2026-04-25 07:10 -23.85336 -55.99457 28657 ft 486 kts 40°
2026-04-25 07:11 -23.82938 -55.96871 29122 ft 483 kts 39°
2026-04-25 07:11 -23.80547 -55.94297 29579 ft 481 kts 39°
2026-04-25 07:11 -23.78164 -55.91738 30021 ft 479 kts 39°
2026-04-25 07:11 -23.75789 -55.89189 30389 ft 478 kts 39°
2026-04-25 07:12 -23.73421 -55.86648 30753 ft 477 kts 39°
2026-04-25 07:12 -23.68696 -55.81572 31451 ft 476 kts 39°
2026-04-25 07:12 -23.66342 -55.79039 31814 ft 475 kts 39°
2026-04-25 07:13 -23.64019 -55.76541 32186 ft 474 kts 40°
2026-04-25 07:13 -23.61672 -55.74018 32556 ft 474 kts 40°
2026-04-25 07:13 -23.59329 -55.71499 32925 ft 473 kts 40°
2026-04-25 07:13 -23.56984 -55.68981 33282 ft 473 kts 40°
2026-04-25 07:14 -23.54647 -55.66472 33658 ft 472 kts 40°
2026-04-25 07:14 -23.52308 -55.63965 34022 ft 471 kts 40°
2026-04-25 07:14 -23.49974 -55.61468 34322 ft 470 kts 40°
2026-04-25 07:14 -23.47642 -55.58972 34604 ft 470 kts 40°
2026-04-25 07:15 -23.45313 -55.56478 34911 ft 469 kts 40°
2026-04-25 07:15 -23.42986 -55.53987 35202 ft 468 kts 40°
2026-04-25 07:15 -23.40698 -55.51536 35477 ft 468 kts 40°
2026-04-25 07:15 -23.38384 -55.49053 35757 ft 467 kts 40°
2026-04-25 07:16 -23.36072 -55.46577 36031 ft 466 kts 40°
2026-04-25 07:16 -23.33757 -55.44104 36292 ft 466 kts 40°
2026-04-25 07:16 -23.31442 -55.41641 36532 ft 465 kts 40°
2026-04-25 07:16 -23.29135 -55.39184 36787 ft 465 kts 40°
2026-04-25 07:17 -23.26824 -55.36720 36969 ft 465 kts 40°
2026-04-25 07:17 -23.24501 -55.34251 37009 ft 469 kts 40°
2026-04-25 07:17 -23.19816 -55.29279 37014 ft 477 kts 41°
2026-04-25 07:18 -23.15067 -55.24219 37007 ft 479 kts 41°
2026-04-25 07:18 -23.10308 -55.19151 37011 ft 479 kts 41°
2026-04-25 07:19 -23.05550 -55.14096 37009 ft 479 kts 41°
2026-04-25 07:19 -23.00810 -55.09081 37020 ft 479 kts 41°
2026-04-25 07:20 -22.96043 -55.04029 37021 ft 479 kts 41°
2026-04-25 07:20 -22.91275 -54.98974 37020 ft 479 kts 41°
2026-04-25 07:21 -22.86501 -54.93932 37016 ft 479 kts 41°
2026-04-25 07:21 -22.81723 -54.88888 37023 ft 479 kts 41°
2026-04-25 07:22 -22.76976 -54.83881 37020 ft 479 kts 41°
2026-04-25 07:22 -22.72195 -54.78856 37015 ft 479 kts 41°
2026-04-25 07:23 -22.67414 -54.73831 37019 ft 479 kts 41°
2026-04-25 07:23 -22.62639 -54.68799 37021 ft 479 kts 41°
2026-04-25 07:24 -22.57866 -54.63778 37018 ft 478 kts 41°
2026-04-25 07:24 -22.53118 -54.58802 37017 ft 478 kts 41°
2026-04-25 07:25 -22.48334 -54.53803 37018 ft 478 kts 41°
2026-04-25 07:25 -22.43540 -54.48807 37018 ft 479 kts 41°
2026-04-25 07:26 -22.38741 -54.43818 37006 ft 479 kts 41°
2026-04-25 07:26 -22.33982 -54.38859 37013 ft 479 kts 41°
2026-04-25 07:27 -22.29189 -54.33869 37010 ft 479 kts 41°
2026-04-25 07:27 -22.24365 -54.28864 36996 ft 485 kts 41°
2026-04-25 07:28 -22.19454 -54.23781 36997 ft 492 kts 41°
2026-04-25 07:28 -22.14514 -54.18661 36997 ft 493 kts 41°
2026-04-25 07:29 -22.09601 -54.13570 36998 ft 493 kts 41°
2026-04-25 07:29 -22.04648 -54.08450 37000 ft 493 kts 41°
2026-04-25 07:30 -21.99686 -54.03332 37003 ft 494 kts 41°
2026-04-25 07:30 -21.94722 -53.98198 37010 ft 495 kts 41°
2026-04-25 07:31 -21.89790 -53.93096 37017 ft 495 kts 41°
2026-04-25 07:31 -21.84812 -53.87970 37021 ft 495 kts 40°
2026-04-25 07:32 -21.79825 -53.82850 37027 ft 496 kts 41°
2026-04-25 07:32 -21.74834 -53.77724 37026 ft 496 kts 41°
2026-04-25 07:33 -21.69848 -53.72606 37031 ft 496 kts 40°
2026-04-25 07:33 -21.64890 -53.67518 37021 ft 496 kts 41°
2026-04-25 07:34 -21.59899 -53.62402 37025 ft 496 kts 41°
2026-04-25 07:34 -21.54898 -53.57287 37028 ft 496 kts 41°
2026-04-25 07:35 -21.49904 -53.52173 37021 ft 496 kts 41°
2026-04-25 07:35 -21.44942 -53.47101 37026 ft 496 kts 41°
2026-04-25 07:36 -21.39986 -53.41937 37027 ft 496 kts 42°
2026-04-25 07:36 -21.35086 -53.36712 37024 ft 497 kts 42°
2026-04-25 07:37 -21.30188 -53.31489 37022 ft 496 kts 42°
2026-04-25 07:37 -21.25284 -53.26307 37028 ft 495 kts 42°
2026-04-25 07:38 -21.20404 -53.21184 37027 ft 494 kts 42°
2026-04-25 07:38 -21.15495 -53.16030 37027 ft 494 kts 42°
2026-04-25 07:39 -21.10596 -53.10883 37029 ft 493 kts 42°
2026-04-25 07:39 -21.05678 -53.05766 37033 ft 493 kts 41°
2026-04-25 07:40 -21.00683 -53.00746 37024 ft 492 kts 40°
2026-04-25 07:40 -20.95692 -52.95808 37018 ft 492 kts 40°
2026-04-25 07:41 -20.90685 -52.90818 37024 ft 491 kts 41°
2026-04-25 07:41 -20.85705 -52.85815 37021 ft 491 kts 41°
2026-04-25 07:42 -20.80747 -52.80783 37022 ft 491 kts 41°
2026-04-25 07:42 -20.75845 -52.75753 37016 ft 490 kts 41°
2026-04-25 07:43 -20.70939 -52.70735 37024 ft 490 kts 41°
2026-04-25 07:43 -20.65995 -52.65697 37023 ft 490 kts 41°
2026-04-25 07:44 -20.61072 -52.60698 37017 ft 490 kts 41°
2026-04-25 07:44 -20.56168 -52.55701 37021 ft 489 kts 41°
2026-04-25 07:45 -20.51260 -52.50702 37017 ft 489 kts 41°
2026-04-25 07:45 -20.46321 -52.45687 37018 ft 489 kts 41°
2026-04-25 07:46 -20.41415 -52.40707 37017 ft 489 kts 41°
2026-04-25 07:46 -20.36476 -52.35692 37014 ft 489 kts 41°
2026-04-25 07:47 -20.31562 -52.30719 37014 ft 489 kts 41°
2026-04-25 07:47 -20.26649 -52.25749 37015 ft 489 kts 41°
2026-04-25 07:48 -20.21708 -52.20744 37020 ft 488 kts 42°
2026-04-25 07:48 -20.16798 -52.15776 37022 ft 488 kts 42°
2026-04-25 07:49 -20.11900 -52.10825 37024 ft 488 kts 41°
2026-04-25 07:49 -20.06986 -52.05873 37022 ft 487 kts 41°
2026-04-25 07:50 -20.02057 -52.00904 37018 ft 487 kts 42°
2026-04-25 07:50 -19.97170 -51.95975 37018 ft 487 kts 42°
2026-04-25 07:51 -19.92237 -51.91000 37020 ft 487 kts 42°
2026-04-25 07:51 -19.87332 -51.86056 37020 ft 487 kts 42°
2026-04-25 07:52 -19.82433 -51.81132 37025 ft 487 kts 42°
2026-04-25 07:52 -19.77508 -51.76169 37025 ft 487 kts 42°
2026-04-25 07:53 -19.72616 -51.71223 37026 ft 486 kts 42°
2026-04-25 07:53 -19.67718 -51.66285 37027 ft 486 kts 42°
2026-04-25 07:54 -19.62820 -51.61372 37023 ft 486 kts 42°
2026-04-25 07:54 -19.57918 -51.56494 37020 ft 486 kts 42°
2026-04-25 07:55 -19.52962 -51.51583 37018 ft 485 kts 42°
2026-04-25 07:55 -19.48057 -51.46709 37022 ft 485 kts 42°
2026-04-25 07:56 -19.43137 -51.41812 37025 ft 484 kts 42°
2026-04-25 07:56 -19.38247 -51.36957 37024 ft 484 kts 42°
2026-04-25 07:57 -19.33347 -51.32103 37022 ft 483 kts 42°
2026-04-25 07:57 -19.28448 -51.27252 37023 ft 483 kts 42°
2026-04-25 07:58 -19.23556 -51.22395 37023 ft 483 kts 42°
2026-04-25 07:58 -19.18642 -51.17521 37020 ft 483 kts 42°
2026-04-25 07:59 -19.13746 -51.12695 37026 ft 482 kts 43°
2026-04-25 07:59 -19.08828 -51.07846 37029 ft 482 kts 43°
2026-04-25 08:00 -19.03946 -51.03026 37029 ft 481 kts 43°
2026-04-25 08:00 -18.99075 -50.98220 37029 ft 481 kts 43°
2026-04-25 08:01 -18.94173 -50.93387 37031 ft 481 kts 43°
2026-04-25 08:01 -18.89311 -50.88598 37029 ft 481 kts 43°
2026-04-25 08:02 -18.84431 -50.83804 37028 ft 480 kts 43°
2026-04-25 08:02 -18.79494 -50.79043 37033 ft 480 kts 41°
2026-04-25 08:03 -18.74523 -50.74327 37031 ft 479 kts 41°
2026-04-25 08:03 -18.69578 -50.69631 37035 ft 479 kts 42°
2026-04-25 08:04 -18.64657 -50.64922 37035 ft 479 kts 42°
2026-04-25 08:04 -18.59743 -50.60207 37037 ft 479 kts 42°
2026-04-25 08:05 -18.54826 -50.55505 37037 ft 479 kts 42°
2026-04-25 08:05 -18.49873 -50.50791 37040 ft 479 kts 42°
2026-04-25 08:06 -18.44955 -50.46083 37040 ft 478 kts 43°
2026-04-25 08:06 -18.40071 -50.41367 37041 ft 478 kts 43°
2026-04-25 08:07 -18.35160 -50.36628 37043 ft 477 kts 43°
2026-04-25 08:07 -18.30290 -50.31947 37040 ft 477 kts 43°
2026-04-25 08:08 -18.25384 -50.27227 37045 ft 477 kts 43°
2026-04-25 08:08 -18.20512 -50.22537 37042 ft 477 kts 43°
2026-04-25 08:09 -18.15600 -50.17827 37039 ft 477 kts 43°
2026-04-25 08:09 -18.10712 -50.13153 37047 ft 476 kts 43°
2026-04-25 08:10 -18.05831 -50.08479 37046 ft 476 kts 43°
2026-04-25 08:10 -18.00949 -50.03801 37047 ft 476 kts 43°
2026-04-25 08:11 -17.95895 -49.99291 37048 ft 476 kts 39°
2026-04-25 08:11 -17.90660 -49.95085 37050 ft 476 kts 37°
2026-04-25 08:12 -17.85373 -49.90884 37046 ft 476 kts 38°
2026-04-25 08:12 -17.81014 -49.87330 37048 ft 476 kts 39°
2026-04-25 08:13 -17.75832 -49.83044 37053 ft 476 kts 39°
2026-04-25 08:14 -17.67182 -49.75922 37058 ft 475 kts 39°
2026-04-25 08:14 -17.62846 -49.72375 37060 ft 475 kts 39°
2026-04-25 08:15 -17.57622 -49.68104 37062 ft 474 kts 39°
2026-04-25 08:15 -17.52446 -49.63867 37060 ft 474 kts 39°
2026-04-25 08:16 -17.47257 -49.59625 37066 ft 474 kts 39°
2026-04-25 08:16 -17.42041 -49.55358 37065 ft 474 kts 39°
2026-04-25 08:17 -17.36857 -49.51121 37069 ft 473 kts 39°
2026-04-25 08:17 -17.31690 -49.46902 37071 ft 473 kts 39°
2026-04-25 08:18 -17.26485 -49.42664 37073 ft 473 kts 39°
2026-04-25 08:18 -17.21287 -49.38439 37072 ft 473 kts 39°
2026-04-25 08:19 -17.16130 -49.34234 37075 ft 473 kts 39°
2026-04-25 08:19 -17.10945 -49.30007 37074 ft 473 kts 39°
2026-04-25 08:20 -17.05749 -49.25790 37071 ft 473 kts 39°
2026-04-25 08:20 -17.00551 -49.21571 37071 ft 473 kts 39°
2026-04-25 08:21 -16.95353 -49.17354 37071 ft 473 kts 39°
2026-04-25 08:21 -16.90189 -49.13166 37073 ft 473 kts 39°
2026-04-25 08:22 -16.85006 -49.08956 37094 ft 473 kts 39°
2026-04-25 08:22 -16.79806 -49.04744 37104 ft 473 kts 39°
2026-04-25 08:23 -16.74680 -49.00598 36794 ft 455 kts 39°
2026-04-25 08:23 -16.72198 -48.98589 36303 ft 453 kts 39°
2026-04-25 08:23 -16.69742 -48.96603 35947 ft 446 kts 39°
2026-04-25 08:23 -16.67304 -48.94635 35205 ft 441 kts 39°
2026-04-25 08:24 -16.64874 -48.92676 34426 ft 437 kts 39°
2026-04-25 08:24 -16.62490 -48.90755 33635 ft 432 kts 39°
2026-04-25 08:24 -16.60133 -48.88857 32813 ft 427 kts 39°
2026-04-25 08:24 -16.57808 -48.86984 32036 ft 422 kts 39°
2026-04-25 08:25 -16.55505 -48.85127 31302 ft 417 kts 39°
2026-04-25 08:25 -16.53201 -48.83266 30584 ft 413 kts 39°
2026-04-25 08:25 -16.50952 -48.81448 29851 ft 408 kts 39°
2026-04-25 08:25 -16.48728 -48.79651 29080 ft 404 kts 39°
2026-04-25 08:26 -16.46543 -48.77886 28368 ft 399 kts 39°
2026-04-25 08:26 -16.44347 -48.76111 27680 ft 394 kts 39°
2026-04-25 08:26 -16.42210 -48.74386 26974 ft 389 kts 39°
2026-04-25 08:26 -16.40087 -48.72675 26305 ft 385 kts 38°
2026-04-25 08:27 -16.37982 -48.70983 25640 ft 381 kts 38°
2026-04-25 08:27 -16.35884 -48.69297 24973 ft 377 kts 38°
2026-04-25 08:27 -16.33826 -48.67642 24316 ft 373 kts 38°
2026-04-25 08:27 -16.31789 -48.66003 23671 ft 369 kts 38°
2026-04-25 08:28 -16.29779 -48.64383 22903 ft 365 kts 38°
2026-04-25 08:28 -16.27781 -48.62774 22169 ft 361 kts 38°
2026-04-25 08:28 -16.25907 -48.61073 21455 ft 356 kts 48°
2026-04-25 08:28 -16.24444 -48.59028 20770 ft 352 kts 61°
2026-04-25 08:29 -16.23460 -48.56728 20100 ft 348 kts 73°
2026-04-25 08:29 -16.22859 -48.54288 19407 ft 345 kts 76°
2026-04-25 08:29 -16.22293 -48.51878 18769 ft 342 kts 76°
2026-04-25 08:29 -16.21728 -48.49494 18099 ft 339 kts 76°
2026-04-25 08:30 -16.21165 -48.47125 17370 ft 337 kts 76°
2026-04-25 08:30 -16.20607 -48.44777 16662 ft 334 kts 76°
2026-04-25 08:30 -16.20054 -48.42448 15971 ft 332 kts 76°
2026-04-25 08:30 -16.19494 -48.40098 15306 ft 330 kts 76°
2026-04-25 08:31 -16.18955 -48.37822 14676 ft 328 kts 76°
2026-04-25 08:31 -16.18407 -48.35513 14053 ft 325 kts 76°
2026-04-25 08:31 -16.17867 -48.33244 13388 ft 323 kts 76°
2026-04-25 08:31 -16.17332 -48.31000 12725 ft 320 kts 76°
2026-04-25 08:32 -16.16796 -48.28744 12086 ft 317 kts 76°
2026-04-25 08:32 -16.16279 -48.26551 11742 ft 304 kts 76°
2026-04-25 08:32 -16.15693 -48.24526 11574 ft 286 kts 63°
2026-04-25 08:32 -16.14564 -48.22904 11188 ft 275 kts 39°
2026-04-25 08:33 -16.12949 -48.21871 10736 ft 267 kts 17°
2026-04-25 08:33 -16.11179 -48.21389 10277 ft 263 kts 11°
2026-04-25 08:33 -16.09415 -48.20943 9819 ft 260 kts 12°
2026-04-25 08:33 -16.07674 -48.20498 9320 ft 258 kts 13°
2026-04-25 08:34 -16.05948 -48.20057 8822 ft 256 kts 13°
2026-04-25 08:34 -16.04229 -48.19617 8332 ft 254 kts 13°
2026-04-25 08:34 -16.02519 -48.19177 7843 ft 252 kts 14°
2026-04-25 08:34 -16.00823 -48.18740 7363 ft 251 kts 14°
2026-04-25 08:35 -15.99122 -48.18366 6878 ft 249 kts
2026-04-25 08:35 -15.97405 -48.18402 6383 ft 248 kts 357°
2026-04-25 08:35 -15.95689 -48.18506 5847 ft 246 kts
2026-04-25 08:35 -15.94072 -48.18133 5564 ft 238 kts 26°
2026-04-25 08:36 -15.92726 -48.17173 5462 ft 235 kts 47°
2026-04-25 08:36 -15.91780 -48.15798 5481 ft 234 kts 60°
2026-04-25 08:36 -15.90958 -48.14374 5474 ft 221 kts 60°
2026-04-25 08:36 -15.90196 -48.13051 5479 ft 209 kts 60°
2026-04-25 08:37 -15.89488 -48.11762 5484 ft 204 kts 67°
2026-04-25 08:37 -15.89141 -48.10339 5494 ft 203 kts 83°
2026-04-25 08:37 -15.89017 -48.08890 5495 ft 203 kts 85°
2026-04-25 08:37 -15.88923 -48.07442 5498 ft 202 kts 86°
2026-04-25 08:38 -15.88831 -48.05980 5506 ft 201 kts 86°
2026-04-25 08:38 -15.88742 -48.04587 5437 ft 189 kts 85°
2026-04-25 08:38 -15.88657 -48.03250 5217 ft 183 kts 86°
2026-04-25 08:38 -15.88577 -48.01989 5004 ft 166 kts 86°
2026-04-25 08:39 -15.88505 -48.00861 4820 ft 151 kts 86°
2026-04-25 08:39 -15.88437 -47.99786 4614 ft 146 kts 86°
2026-04-25 08:39 -15.88370 -47.98751 4436 ft 144 kts 86°
2026-04-25 08:39 -15.88303 -47.97703 4250 ft 145 kts 86°
2026-04-25 08:40 -15.88236 -47.96651 4061 ft 148 kts 86°
2026-04-25 08:40 -15.88168 -47.95588 3860 ft 148 kts 86°
2026-04-25 08:40 -15.88097 -47.94524 3640 ft 149 kts 86°
2026-04-25 08:40 -15.88031 -47.93465 3487 ft 139 kts 86°
2026-04-25 08:41 -15.87978 -47.92620 3475 ft 92 kts 86°
2026-04-25 08:41 -15.87946 -47.92129 3472 ft 53 kts 86°
2026-04-25 08:41 -15.87891 -47.91819 3469 ft 36 kts 67°
2026-04-25 08:41 -15.87779 -47.91656 3469 ft 16 kts 52°
2026-04-25 08:42 -15.87734 -47.91586 3469 ft 11 kts 58°
2026-04-25 08:42 -15.87667 -47.91552 3470 ft 12 kts 358°
2026-04-25 08:42 -15.87576 -47.91557 3468 ft 15 kts 356°
2026-04-25 08:42 -15.87460 -47.91565 3463 ft 17 kts 356°
2026-04-25 08:43 -15.87341 -47.91574 3464 ft 16 kts 354°
2026-04-25 08:43 -15.87310 -47.91644 3464 ft 13 kts 266°
2026-04-25 08:43 -15.87318 -47.91718 3464 ft 8 kts 263°
2026-04-25 08:43 -15.87313 -47.91755 3463 ft 3 kts 331°
2026-04-25 08:44 -15.87284 -47.91755 3465 ft 5 kts 357°
2026-04-25 08:44 -15.87264 -47.91757 3463 ft 1 kts 356°
2026-04-25 08:44 -15.87263 -47.91757 3463 ft 0 kts 356°